Погода в Аккре

Гана     5°38′04″N   0°10′18″E
темп.,
°C
ветер,
м/с
пор.,
м/с
влажн.,
%
обл.,
%
осадки,
мм/ч
давл.,
гПа
погр.,
м
15 апреля, чт
чт1500:00+27юз3676100 0.1 1011445
03:00+26зюз3582100 0.0 1009415
06:00+25з2388100 0.0 1010244
09:00+30зюз336059 0.0 1011945
12:00+35ю334088 0.0 10092005
15:00+35ююв75428 0.0 10061260
18:00+30ю565859 0.2 1008580
21:00+28ююз3569100 0.0 1010446
16 апреля, пт
пт1600:00+27юз457693 0.0 1009468
03:00+26зюз358164 0.0 1007418
06:00+26зюз358555 0.0 1009362
09:00+31юз455872 0.0 10111197
12:00+32ю6552100 0.0 10091364
15:00+33ююз654637 0.0 10071457
18:00+29ююз67610 0.1 1007815
21:00+28юз467079 0.0 1010483
17 апреля, сб
сб1700:00+27юз3677100 0.0 1010417
03:00+26зюз4882100 0.0 1008515
06:00+25зюз3586100 0.0 1010303
09:00+30юз565999 0.0 10111191
12:00+35ююз654140 0.0 10091913
15:00+34ю874655 0.0 10071313
18:00+29юз686436 0.1 1009945
21:00+28юз4770100 0.0 1011670
18 апреля, вс
вс1800:00+27зюз3674100 0.0 1011418
03:00+26з2482100 0.0 1010284
06:00+25з2384100 0.0 1011210
09:00+30зюз445852 0.0 1013997
12:00+35юз4341100 0.0 10101986
15:00+35ююз6544100 0.0 10071615
18:00+30ююз5660100 0.0 1009665
21:00+28ююз4671100 0.0 1011485
19 апреля, пн
пн1900:00+27юз3575100 0.1 1011428
03:00+27зюз3582100 0.0 1010467
06:00+26зюз3585100 0.0 1010383
09:00+30юз456599 0.0 10121007
12:00+34ююз5349100 0.0 10101794
15:00+31ю6657100 0.0 1008848
18:00+29ююз676885 0.1 1008792
21:00+27юз47799 0.0 1011624